,,,PA_Meas_PMT16A,,PR_Meas_QMR101_102,,RH_Meas_QMH101,,SR_Meas_QMS101,,TA_Meas_QMH101,,GenWind,,GenWind,
date,time,status,PA,status,PR,status,RH,status,SR,status,TA,status,DirAvg,status,SpdAvg,
2012-03-26, 00:00:04,VALID,1011.39,VALID,0,VALID,104,VALID,0,VALID,23.4992,VALID,333,VALID,0,
2012-03-26, 00:01:04,VALID,1011.4,VALID,0,VALID,104,VALID,0,VALID,23.4797,VALID,333,VALID,0,
2012-03-26, 00:02:04,VALID,1011.38,VALID,0,VALID,104,VALID,0,VALID,23.4797,VALID,333,VALID,0,
2012-03-26, 00:03:04,VALID,1011.39,VALID,0,VALID,104,VALID,0,VALID,23.4797,VALID,333,VALID,0,
2012-03-26, 00:04:04,VALID,1011.38,VALID,0,VALID,104,VALID,0,VALID,23.4602,VALID,333,VALID,0,
2012-03-26, 00:05:04,VALID,1011.34,VALID,0,VALID,104,VALID,0,VALID,23.4389,VALID,333,VALID,0,
2012-03-26, 00:06:04,VALID,1011.32,VALID,0,VALID,104,VALID,0,VALID,23.4407,VALID,333,VALID,0,
2012-03-26, 00:07:04,VALID,1011.29,VALID,0,VALID,104,VALID,0,VALID,23.4212,VALID,333,VALID,0,
2012-03-26, 00:08:04,VALID,1011.28,VALID,0,VALID,104,VALID,0,VALID,23.4212,VALID,333,VALID,0.178906,
2012-03-26, 00:09:04,VALID,1011.27,VALID,0,VALID,104,VALID,0,VALID,23.4212,VALID,333,VALID,0.0175781,
2012-03-26, 00:10:04,VALID,1011.21,VALID,0,VALID,104,VALID,0,VALID,23.4212,VALID,333,VALID,0,
2012-03-26, 00:11:04,VALID,1011.22,VALID,0,VALID,104,VALID,0.112112,VALID,23.4407,VALID,333,VALID,0,
2012-03-26, 00:12:04,VALID,1011.19,VALID,0,VALID,104,VALID,0,VALID,23.4212,VALID,333,VALID,0,
2012-03-26, 00:13:04,VALID,1011.18,VALID,0,VALID,104,VALID,0,VALID,23.4212,VALID,333,VALID,0,
2012-03-26, 00:14:04,VALID,1011.15,VALID,0,VALID,104,VALID,0,VALID,23.3823,VALID,333,VALID,0,
2012-03-26, 00:15:04,VALID,1011.15,VALID,0,VALID,104,VALID,0,VALID,23.3433,VALID,333,VALID,0,
2012-03-26, 00:16:04,VALID,1011.15,VALID,0,VALID,104,VALID,0,VALID,23.3628,VALID,333,VALID,0,
2012-03-26, 00:17:04,VALID,1011.12,VALID,0,VALID,104,VALID,0,VALID,23.3433,VALID,333,VALID,0,
2012-03-26, 00:18:04,VALID,1011.11,VALID,0,VALID,104,VALID,0,VALID,23.3026,VALID,333,VALID,0,
2012-03-26, 00:19:04,VALID,1011.13,VALID,0,VALID,104,VALID,0,VALID,23.3238,VALID,333,VALID,0,
2012-03-26, 00:20:04,VALID,1011.12,VALID,0,VALID,104,VALID,0,VALID,23.3256,VALID,333,VALID,0,
2012-03-26, 00:21:04,VALID,1011.13,VALID,0,VALID,104,VALID,0,VALID,23.3043,VALID,333,VALID,0,
2012-03-26, 00:22:04,VALID,1011.11,VALID,0,VALID,104,VALID,0,VALID,23.3043,VALID,333,VALID,0,
2012-03-26, 00:23:04,VALID,1011.12,VALID,0,VALID,104,VALID,0,VALID,23.2848,VALID,333,VALID,0,
2012-03-26, 00:24:04,VALID,1011.08,VALID,0,VALID,104,VALID,0,VALID,23.2654,VALID,333,VALID,0,
2012-03-26, 00:25:04,VALID,1011.1,VALID,0,VALID,104,VALID,0,VALID,23.2654,VALID,333,VALID,0,
2012-03-26, 00:26:04,VALID,1011.07,VALID,0,VALID,104,VALID,0,VALID,23.2459,VALID,333,VALID,0,
2012-03-26, 00:27:04,VALID,1011.05,VALID,0,VALID,104,VALID,0,VALID,23.2264,VALID,333,VALID,0.0046875,
2012-03-26, 00:28:04,VALID,1011.04,VALID,0,VALID,104,VALID,0,VALID,23.2654,VALID,333,VALID,0.160156,
2012-03-26, 00:29:04,VALID,1011.03,VALID,0,VALID,104,VALID,0,VALID,23.2848,VALID,333,VALID,0.0539063,
2012-03-26, 00:30:04,VALID,1011,VALID,0,VALID,104,VALID,0,VALID,23.2654,VALID,333,VALID,0.175781,
2012-03-26, 00:31:04,VALID,1010.98,VALID,0,VALID,104,VALID,0,VALID,23.2848,VALID,333,VALID,0,
2012-03-26, 00:32:04,VALID,1011,VALID,0,VALID,104,VALID,0,VALID,23.2654,VALID,333,VALID,0.0113281,
2012-03-26, 00:33:04,VALID,1010.97,VALID,0,VALID,104,VALID,0,VALID,23.2459,VALID,333,VALID,0.0640625,
2012-03-26, 00:34:05,VALID,1010.95,VALID,0,VALID,104,VALID,0,VALID,23.2654,VALID,333,VALID,0.0546875,
2012-03-26, 00:35:04,VALID,1010.93,VALID,0,VALID,104,VALID,0,VALID,23.2459,VALID,333,VALID,0.0289063,
2012-03-26, 00:36:04,VALID,1010.91,VALID,0,VALID,104,VALID,0,VALID,23.2459,VALID,333,VALID,0,
2012-03-26, 00:37:04,VALID,1010.91,VALID,0,VALID,104,VALID,0,VALID,23.2459,VALID,333,VALID,0,
2012-03-26, 00:38:05,VALID,1010.88,VALID,0,VALID,104,VALID,0,VALID,23.2459,VALID,333,VALID,0,
2012-03-26, 00:39:05,VALID,1010.87,VALID,0,VALID,104,VALID,0,VALID,23.2459,VALID,333,VALID,0,
2012-03-26, 00:40:05,VALID,1010.86,VALID,0,VALID,104,VALID,0,VALID,23.2459,VALID,333,VALID,0,
2012-03-26, 00:41:05,VALID,1010.87,VALID,0,VALID,104,VALID,0,VALID,23.2264,VALID,333,VALID,0,
2012-03-26, 00:42:05,VALID,1010.84,VALID,0,VALID,104,VALID,0,VALID,23.2264,VALID,333,VALID,0,
2012-03-26, 00:43:05,VALID,1010.86,VALID,0,VALID,104,VALID,0,VALID,23.2459,VALID,333,VALID,0,
2012-03-26, 00:44:05,VALID,1010.85,VALID,0,VALID,104,VALID,0,VALID,23.2246,VALID,333,VALID,0,
2012-03-26, 00:45:05,VALID,1010.83,VALID,0,VALID,104,VALID,0,VALID,23.2459,VALID,333,VALID,0,
2012-03-26, 00:46:05,VALID,1010.8,VALID,0,VALID,104,VALID,0,VALID,23.2264,VALID,333,VALID,0,
2012-03-26, 00:47:05,VALID,1010.79,VALID,0,VALID,104,VALID,0,VALID,23.2069,VALID,333,VALID,0,
2012-03-26, 00:48:05,VALID,1010.79,VALID,0,VALID,104,VALID,0,VALID,23.1679,VALID,333,VALID,0,
2012-03-26, 00:49:05,VALID,1010.76,VALID,0,VALID,104,VALID,0,VALID,23.1485,VALID,333,VALID,0,
2012-03-26, 00:50:05,VALID,1010.75,VALID,0,VALID,104,VALID,0,VALID,23.1485,VALID,333,VALID,0.101172,
2012-03-26, 00:51:05,VALID,1010.74,VALID,0,VALID,104,VALID,0,VALID,23.1095,VALID,333,VALID,0.06875,
2012-03-26, 00:52:05,VALID,1010.76,VALID,0,VALID,104,VALID,0,VALID,23.129,VALID,333,VALID,0,
2012-03-26, 00:53:05,VALID,1010.75,VALID,0,VALID,104,VALID,0,VALID,23.1485,VALID,333,VALID,0,
2012-03-26, 00:54:05,VALID,1010.72,VALID,0,VALID,104,VALID,0,VALID,23.1485,VALID,333,VALID,0,
2012-03-26, 00:55:05,VALID,1010.72,VALID,0,VALID,104,VALID,0,VALID,23.1485,VALID,333,VALID,0,
2012-03-26, 00:56:05,VALID,1010.74,VALID,0,VALID,104,VALID,0,VALID,23.1485,VALID,333,VALID,0,
2012-03-26, 00:57:05,VALID,1010.74,VALID,0,VALID,104,VALID,0,VALID,23.1095,VALID,333,VALID,0,
2012-03-26, 00:58:05,VALID,1010.72,VALID,0,VALID,104,VALID,0,VALID,23.1095,VALID,333,VALID,0,
2012-03-26, 00:59:05,VALID,1010.67,VALID,0,VALID,104,VALID,0,VALID,23.09,VALID,333,VALID,0,
2012-03-26, 01:00:05,VALID,1010.69,VALID,0,VALID,104,VALID,0,VALID,23.09,VALID,333,VALID,0,
2012-03-26, 01:01:05,VALID,1010.7,VALID,0,VALID,104,VALID,0.112112,VALID,23.0705,VALID,333,VALID,0,
2012-03-26, 01:02:05,VALID,1010.65,VALID,0,VALID,104,VALID,0,VALID,23.0316,VALID,333,VALID,0,
2012-03-26, 01:03:05,VALID,1010.64,VALID,0,VALID,104,VALID,0,VALID,23.0511,VALID,333,VALID,0,
2012-03-26, 01:04:05,VALID,1010.6,VALID,0,VALID,104,VALID,0,VALID,23.0511,VALID,333,VALID,0,
2012-03-26, 01:05:05,VALID,1010.6,VALID,0,VALID,104,VALID,0,VALID,23.0316,VALID,333,VALID,0,
2012-03-26, 01:06:05,VALID,1010.61,VALID,0,VALID,104,VALID,0,VALID,22.9909,VALID,333,VALID,0,
2012-03-26, 01:07:05,VALID,1010.61,VALID,0,VALID,104,VALID,0,VALID,22.9926,VALID,333,VALID,0,
2012-03-26, 01:08:05,VALID,1010.59,VALID,0,VALID,104,VALID,0,VALID,22.9926,VALID,333,VALID,0,
2012-03-26, 01:09:05,VALID,1010.6,VALID,0,VALID,104,VALID,0,VALID,22.9926,VALID,333,VALID,0,
2012-03-26, 01:10:05,VALID,1010.57,VALID,0,VALID,104,VALID,0,VALID,22.9519,VALID,333,VALID,0,
2012-03-26, 01:11:05,VALID,1010.58,VALID,0,VALID,104,VALID,0,VALID,22.9731,VALID,333,VALID,0,
2012-03-26, 01:12:05,VALID,1010.58,VALID,0,VALID,104,VALID,0,VALID,22.9536,VALID,333,VALID,0,
2012-03-26, 01:13:05,VALID,1010.58,VALID,0,VALID,104,VALID,0,VALID,22.9536,VALID,333,VALID,0,
2012-03-26, 01:14:05,VALID,1010.56,VALID,0,VALID,104,VALID,0,VALID,22.9536,VALID,333,VALID,0,
2012-03-26, 01:15:05,VALID,1010.49,VALID,0,VALID,104,VALID,0,VALID,22.9342,VALID,333,VALID,0,
2012-03-26, 01:16:05,VALID,1010.5,VALID,0,VALID,104,VALID,0,VALID,22.9342,VALID,333,VALID,0,
2012-03-26, 01:17:05,VALID,1010.49,VALID,0,VALID,104,VALID,0,VALID,22.9536,VALID,333,VALID,0,
2012-03-26, 01:18:05,VALID,1010.47,VALID,0,VALID,104,VALID,0,VALID,22.9342,VALID,333,VALID,0,
2012-03-26, 01:19:05,VALID,1010.44,VALID,0,VALID,104,VALID,0,VALID,22.9749,VALID,333,VALID,0,
2012-03-26, 01:20:05,VALID,1010.45,VALID,0,VALID,104,VALID,0,VALID,22.9342,VALID,333,VALID,0,
2012-03-26, 01:21:05,VALID,1010.42,VALID,0,VALID,104,VALID,0,VALID,22.9147,VALID,333,VALID,0,
2012-03-26, 01:22:05,VALID,1010.41,VALID,0,VALID,104,VALID,0,VALID,22.9147,VALID,333,VALID,0,
2012-03-26, 01:23:05,VALID,1010.39,VALID,0,VALID,104,VALID,0,VALID,22.9147,VALID,333,VALID,0,
2012-03-26, 01:24:05,VALID,1010.39,VALID,0,VALID,104,VALID,0,VALID,22.8952,VALID,333,VALID,0,
2012-03-26, 01:25:05,VALID,1010.36,VALID,0,VALID,104,VALID,0,VALID,22.8757,VALID,333,VALID,0,
2012-03-26, 01:26:05,VALID,1010.38,VALID,0,VALID,104,VALID,0.112112,VALID,22.8545,VALID,333,VALID,0,
2012-03-26, 01:27:05,VALID,1010.38,VALID,0,VALID,104,VALID,0,VALID,22.8757,VALID,333,VALID,0,
2012-03-26, 01:28:05,VALID,1010.38,VALID,0,VALID,104,VALID,0,VALID,22.8562,VALID,333,VALID,0,
2012-03-26, 01:29:05,VALID,1010.37,VALID,0,VALID,104,VALID,0,VALID,22.8757,VALID,333,VALID,0,
2012-03-26, 01:30:05,VALID,1010.35,VALID,0,VALID,104,VALID,0,VALID,22.8952,VALID,333,VALID,0,
2012-03-26, 01:31:05,VALID,1010.37,VALID,0,VALID,104,VALID,0,VALID,22.8757,VALID,333,VALID,0,
2012-03-26, 01:32:05,VALID,1010.38,VALID,0,VALID,104,VALID,0.112112,VALID,22.835,VALID,333,VALID,0,
2012-03-26, 01:33:05,VALID,1010.36,VALID,0,VALID,104,VALID,0,VALID,22.8173,VALID,333,VALID,0,
2012-03-26, 01:34:05,VALID,1010.37,VALID,0,VALID,104,VALID,0,VALID,22.8173,VALID,333,VALID,0,
2012-03-26, 01:35:05,VALID,1010.35,VALID,0,VALID,104,VALID,0,VALID,22.8173,VALID,333,VALID,0,
2012-03-26, 01:36:05,VALID,1010.35,VALID,0,VALID,104,VALID,0,VALID,22.8173,VALID,333,VALID,0,
2012-03-26, 01:37:05,VALID,1010.37,VALID,0,VALID,104,VALID,0,VALID,22.8173,VALID,333,VALID,0,
2012-03-26, 01:38:05,VALID,1010.35,VALID,0,VALID,104,VALID,0.112112,VALID,22.8173,VALID,333,VALID,0,
2012-03-26, 01:39:05,VALID,1010.34,VALID,0,VALID,104,VALID,0,VALID,22.7978,VALID,333,VALID,0.333203,
2012-03-26, 01:40:05,VALID,1010.33,VALID,0,VALID,104,VALID,0,VALID,22.7783,VALID,333,VALID,0.175781,
2012-03-26, 01:41:05,VALID,1010.32,VALID,0,VALID,104,VALID,0,VALID,22.7783,VALID,333,VALID,0,
2012-03-26, 01:42:05,VALID,1010.33,VALID,0,VALID,104,VALID,0,VALID,22.8173,VALID,333,VALID,0,
2012-03-26, 01:43:05,VALID,1010.31,VALID,0,VALID,104,VALID,0,VALID,22.8173,VALID,333,VALID,0.0730469,
2012-03-26, 01:44:05,VALID,1010.31,VALID,0,VALID,104,VALID,0,VALID,22.8562,VALID,333,VALID,0,
2012-03-26, 01:45:05,VALID,1010.28,VALID,0,VALID,104,VALID,0,VALID,22.8368,VALID,333,VALID,0.197266,
2012-03-26, 01:46:05,VALID,1010.27,VALID,0,VALID,104,VALID,0,VALID,22.8562,VALID,333,VALID,0.129297,
2012-03-26, 01:47:05,VALID,1010.27,VALID,0,VALID,104,VALID,0,VALID,22.8368,VALID,333,VALID,0,
2012-03-26, 01:48:05,VALID,1010.27,VALID,0,VALID,104,VALID,0,VALID,22.8368,VALID,333,VALID,0,
2012-03-26, 01:49:05,VALID,1010.23,VALID,0,VALID,104,VALID,0,VALID,22.8562,VALID,333,VALID,0,
2012-03-26, 01:50:05,VALID,1010.2,VALID,0,VALID,104,VALID,0,VALID,22.8757,VALID,333,VALID,0,
2012-03-26, 01:51:05,VALID,1010.21,VALID,0,VALID,104,VALID,0,VALID,22.8952,VALID,333,VALID,0,
2012-03-26, 01:52:05,VALID,1010.16,VALID,0,VALID,104,VALID,0,VALID,22.8757,VALID,333,VALID,0,
2012-03-26, 01:53:05,VALID,1010.17,VALID,0,VALID,104,VALID,0,VALID,22.8757,VALID,333,VALID,0,
2012-03-26, 01:54:05,VALID,1010.17,VALID,0,VALID,104,VALID,0,VALID,22.8757,VALID,333,VALID,0,
2012-03-26, 01:55:05,VALID,1010.16,VALID,0,VALID,104,VALID,0,VALID,22.8757,VALID,333,VALID,0,
2012-03-26, 01:56:05,VALID,1010.14,VALID,0,VALID,104,VALID,0,VALID,22.8757,VALID,333,VALID,0,
2012-03-26, 01:57:05,VALID,1010.12,VALID,0,VALID,104,VALID,0,VALID,22.8562,VALID,333,VALID,0,
2012-03-26, 01:58:05,VALID,1010.14,VALID,0,VALID,104,VALID,0,VALID,22.8757,VALID,333,VALID,0,
2012-03-26, 01:59:05,VALID,1010.1,VALID,0,VALID,104,VALID,0,VALID,22.8562,VALID,333,VALID,0,
2012-03-26, 02:00:05,VALID,1010.1,VALID,0,VALID,104,VALID,0,VALID,22.8368,VALID,333,VALID,0,
2012-03-26, 02:01:05,VALID,1010.06,VALID,0,VALID,104,VALID,0,VALID,22.7783,VALID,333,VALID,0,
2012-03-26, 02:02:05,VALID,1010.04,VALID,0,VALID,104,VALID,0,VALID,22.7004,VALID,333,VALID,0,
2012-03-26, 02:03:05,VALID,1010.05,VALID,0,VALID,104,VALID,0,VALID,22.603,VALID,333,VALID,0,
2012-03-26, 02:04:05,VALID,1010.02,VALID,0,VALID,104,VALID,0,VALID,22.5251,VALID,333,VALID,0,
2012-03-26, 02:05:05,VALID,1010.01,VALID,0,VALID,104,VALID,0,VALID,22.4861,VALID,333,VALID,0,
2012-03-26, 02:06:05,VALID,1010,VALID,0,VALID,104,VALID,0,VALID,22.4667,VALID,333,VALID,0,
2012-03-26, 02:07:05,VALID,1010,VALID,0,VALID,104,VALID,0,VALID,22.4667,VALID,333,VALID,0,
2012-03-26, 02:08:05,VALID,1009.99,VALID,0,VALID,104,VALID,0,VALID,22.4667,VALID,333,VALID,0,
2012-03-26, 02:09:05,VALID,1010,VALID,0,VALID,104,VALID,0,VALID,22.4472,VALID,333,VALID,0,
2012-03-26, 02:10:05,VALID,1009.97,VALID,0,VALID,104,VALID,0,VALID,22.4861,VALID,333,VALID,0,
2012-03-26, 02:11:05,VALID,1009.98,VALID,0,VALID,104,VALID,0,VALID,22.4861,VALID,333,VALID,0,
2012-03-26, 02:12:05,VALID,1009.98,VALID,0,VALID,104,VALID,0,VALID,22.4667,VALID,333,VALID,0,
2012-03-26, 02:13:05,VALID,1009.99,VALID,0,VALID,104,VALID,0,VALID,22.4472,VALID,333,VALID,0,
2012-03-26, 02:14:05,VALID,1010,VALID,0,VALID,104,VALID,0,VALID,22.4277,VALID,333,VALID,0,
2012-03-26, 02:15:05,VALID,1009.99,VALID,0,VALID,104,VALID,0,VALID,22.3887,VALID,333,VALID,0,
2012-03-26, 02:16:05,VALID,1010,VALID,0,VALID,104,VALID,0,VALID,22.3887,VALID,333,VALID,0,
2012-03-26, 02:17:05,VALID,1010.02,VALID,0,VALID,104,VALID,0,VALID,22.4099,VALID,333,VALID,0,
2012-03-26, 02:18:05,VALID,1010,VALID,0,VALID,104,VALID,0,VALID,22.4082,VALID,333,VALID,0,
2012-03-26, 02:19:05,VALID,1009.99,VALID,0,VALID,104,VALID,0,VALID,22.4277,VALID,333,VALID,0,
2012-03-26, 02:20:05,VALID,1009.97,VALID,0,VALID,104,VALID,0,VALID,22.4277,VALID,333,VALID,0,
2012-03-26, 02:21:05,VALID,1009.99,VALID,0,VALID,104,VALID,0,VALID,22.4472,VALID,333,VALID,0,
2012-03-26, 02:22:05,VALID,1009.97,VALID,0,VALID,104,VALID,0,VALID,22.4472,VALID,333,VALID,0,
2012-03-26, 02:23:05,VALID,1009.97,VALID,0,VALID,104,VALID,0,VALID,22.4667,VALID,333,VALID,0,
2012-03-26, 02:24:05,VALID,1009.94,VALID,0,VALID,104,VALID,0,VALID,22.4861,VALID,333,VALID,0,
2012-03-26, 02:25:05,VALID,1009.95,VALID,0,VALID,104,VALID,0,VALID,22.4861,VALID,333,VALID,0,
2012-03-26, 02:26:05,VALID,1009.93,VALID,0,VALID,104,VALID,0,VALID,22.4861,VALID,333,VALID,0,
2012-03-26, 02:27:05,VALID,1009.92,VALID,0,VALID,104,VALID,0,VALID,22.4472,VALID,333,VALID,0,
2012-03-26, 02:28:05,VALID,1009.92,VALID,0,VALID,104,VALID,0,VALID,22.4684,VALID,333,VALID,0,
2012-03-26, 02:29:05,VALID,1009.9,VALID,0,VALID,104,VALID,0,VALID,22.4667,VALID,333,VALID,0,
2012-03-26, 02:30:05,VALID,1009.88,VALID,0,VALID,104,VALID,0,VALID,22.4277,VALID,333,VALID,0,
2012-03-26, 02:31:05,VALID,1009.85,VALID,0,VALID,104,VALID,0,VALID,22.4082,VALID,333,VALID,0,
2012-03-26, 02:32:05,VALID,1009.84,VALID,0,VALID,104,VALID,0,VALID,22.3887,VALID,333,VALID,0,
2012-03-26, 02:33:05,VALID,1009.82,VALID,0,VALID,104,VALID,0,VALID,22.3887,VALID,333,VALID,0,
2012-03-26, 02:34:05,VALID,1009.81,VALID,0,VALID,104,VALID,0,VALID,22.4277,VALID,333,VALID,0,
2012-03-26, 02:35:05,VALID,1009.8,VALID,0,VALID,104,VALID,0,VALID,22.4472,VALID,333,VALID,0,
2012-03-26, 02:36:05,VALID,1009.81,VALID,0,VALID,104,VALID,0.112112,VALID,22.4472,VALID,333,VALID,0,
2012-03-26, 02:37:05,VALID,1009.81,VALID,0,VALID,104,VALID,0,VALID,22.4277,VALID,333,VALID,0,
2012-03-26, 02:38:05,VALID,1009.79,VALID,0,VALID,104,VALID,0,VALID,22.4472,VALID,333,VALID,0,
2012-03-26, 02:39:05,VALID,1009.8,VALID,0,VALID,104,VALID,0.112112,VALID,22.4277,VALID,333,VALID,0,
2012-03-26, 02:40:05,VALID,1009.8,VALID,0,VALID,104,VALID,0.112112,VALID,22.3887,VALID,333,VALID,0,
2012-03-26, 02:41:05,VALID,1009.81,VALID,0,VALID,104,VALID,0,VALID,22.3303,VALID,333,VALID,0,
2012-03-26, 02:42:05,VALID,1009.81,VALID,0,VALID,104,VALID,0,VALID,22.3108,VALID,333,VALID,0,
2012-03-26, 02:43:05,VALID,1009.8,VALID,0,VALID,104,VALID,0,VALID,22.2914,VALID,333,VALID,0,
2012-03-26, 02:44:05,VALID,1009.78,VALID,0,VALID,104,VALID,0,VALID,22.2914,VALID,333,VALID,0,
2012-03-26, 02:45:05,VALID,1009.77,VALID,0,VALID,104,VALID,0,VALID,22.2914,VALID,333,VALID,0,
2012-03-26, 02:46:05,VALID,1009.77,VALID,0,VALID,104,VALID,0,VALID,22.2524,VALID,333,VALID,0,
2012-03-26, 02:47:05,VALID,1009.77,VALID,0,VALID,104,VALID,0,VALID,22.2134,VALID,333,VALID,0,
2012-03-26, 02:48:05,VALID,1009.74,VALID,0,VALID,104,VALID,0.112112,VALID,22.2134,VALID,333,VALID,0,
2012-03-26, 02:49:05,VALID,1009.77,VALID,0,VALID,104,VALID,0,VALID,22.2134,VALID,333,VALID,0,
2012-03-26, 02:50:05,VALID,1009.78,VALID,0,VALID,104,VALID,0.112112,VALID,22.194,VALID,333,VALID,0,
2012-03-26, 02:51:05,VALID,1009.8,VALID,0,VALID,104,VALID,0,VALID,22.194,VALID,333,VALID,0,
2012-03-26, 02:52:05,VALID,1009.82,VALID,0,VALID,104,VALID,0,VALID,22.1745,VALID,333,VALID,0,
2012-03-26, 02:53:05,VALID,1009.79,VALID,0,VALID,104,VALID,0,VALID,22.1745,VALID,333,VALID,0,
2012-03-26, 02:54:05,VALID,1009.82,VALID,0,VALID,104,VALID,0.112112,VALID,22.155,VALID,333,VALID,0,
2012-03-26, 02:55:05,VALID,1009.8,VALID,0,VALID,104,VALID,0,VALID,22.155,VALID,333,VALID,0,
2012-03-26, 02:56:05,VALID,1009.79,VALID,0,VALID,104,VALID,0,VALID,22.1533,VALID,333,VALID,0,
2012-03-26, 02:57:05,VALID,1009.78,VALID,0,VALID,104,VALID,0,VALID,22.155,VALID,333,VALID,0,
2012-03-26, 02:58:05,VALID,1009.75,VALID,0,VALID,104,VALID,0,VALID,22.155,VALID,333,VALID,0,
2012-03-26, 02:59:05,VALID,1009.75,VALID,0,VALID,104,VALID,0,VALID,22.1355,VALID,333,VALID,0,
2012-03-26, 03:00:05,VALID,1009.71,VALID,0,VALID,104,VALID,0,VALID,22.1161,VALID,333,VALID,0,
2012-03-26, 03:01:05,VALID,1009.71,VALID,0,VALID,104,VALID,0,VALID,22.155,VALID,333,VALID,0,
2012-03-26, 03:02:05,VALID,1009.7,VALID,0,VALID,104,VALID,0,VALID,22.155,VALID,333,VALID,0,
2012-03-26, 03:03:05,VALID,1009.72,VALID,0,VALID,104,VALID,0,VALID,22.1745,VALID,333,VALID,0,
2012-03-26, 03:04:05,VALID,1009.71,VALID,0,VALID,104,VALID,0,VALID,22.1745,VALID,333,VALID,0,
2012-03-26, 03:05:05,VALID,1009.74,VALID,0,VALID,104,VALID,0,VALID,22.1161,VALID,333,VALID,0,
2012-03-26, 03:06:05,VALID,1009.73,VALID,0,VALID,104,VALID,0,VALID,22.1161,VALID,333,VALID,0.444531,
2012-03-26, 03:07:05,VALID,1009.77,VALID,0,VALID,104,VALID,0,VALID,22.1745,VALID,333,VALID,0.428906,
2012-03-26, 03:08:05,VALID,1009.79,VALID,0,VALID,104,VALID,0,VALID,22.1745,VALID,333,VALID,0.471875,
2012-03-26, 03:09:05,VALID,1009.78,VALID,0,VALID,104,VALID,0,VALID,22.155,VALID,333,VALID,0.464063,
2012-03-26, 03:10:05,VALID,1009.8,VALID,0,VALID,104,VALID,0.112112,VALID,22.155,VALID,333,VALID,0.284766,
2012-03-26, 03:11:05,VALID,1009.79,VALID,0,VALID,104,VALID,0,VALID,22.1745,VALID,333,VALID,0.205078,
2012-03-26, 03:12:05,VALID,1009.8,VALID,0,VALID,104,VALID,0,VALID,22.155,VALID,333,VALID,0,
2012-03-26, 03:13:05,VALID,1009.82,VALID,0,VALID,104,VALID,0,VALID,22.1355,VALID,333,VALID,0,
2012-03-26, 03:14:05,VALID,1009.8,VALID,0,VALID,104,VALID,0.112112,VALID,22.1161,VALID,333,VALID,0,
2012-03-26, 03:15:05,VALID,1009.81,VALID,0,VALID,104,VALID,0,VALID,22.0966,VALID,333,VALID,0,
2012-03-26, 03:16:05,VALID,1009.83,VALID,0,VALID,104,VALID,0,VALID,22.0966,VALID,333,VALID,0,
2012-03-26, 03:17:05,VALID,1009.83,VALID,0,VALID,104,VALID,0.112112,VALID,22.0771,VALID,333,VALID,0,
2012-03-26, 03:18:05,VALID,1009.84,VALID,0,VALID,104,VALID,0,VALID,22.0382,VALID,333,VALID,0,
2012-03-26, 03:19:04,VALID,1009.84,VALID,0,VALID,104,VALID,0,VALID,21.9992,VALID,333,VALID,0,
2012-03-26, 03:20:04,VALID,1009.85,VALID,0,VALID,104,VALID,0,VALID,21.9797,VALID,333,VALID,0,
2012-03-26, 03:21:04,VALID,1009.85,VALID,0,VALID,104,VALID,0,VALID,21.9603,VALID,333,VALID,0,
2012-03-26, 03:22:04,VALID,1009.86,VALID,0,VALID,104,VALID,0,VALID,21.9603,VALID,333,VALID,0,
2012-03-26, 03:23:04,VALID,1009.87,VALID,0,VALID,104,VALID,0.112112,VALID,21.9603,VALID,333,VALID,0,
2012-03-26, 03:24:04,VALID,1009.85,VALID,0,VALID,104,VALID,0,VALID,21.9797,VALID,333,VALID,0,
2012-03-26, 03:25:04,VALID,1009.86,VALID,0,VALID,104,VALID,0,VALID,21.9992,VALID,333,VALID,0,
2012-03-26, 03:26:04,VALID,1009.87,VALID,0,VALID,104,VALID,0,VALID,22.0382,VALID,333,VALID,0,
2012-03-26, 03:27:04,VALID,1009.86,VALID,0,VALID,104,VALID,0,VALID,22.0983,VALID,333,VALID,0.0863281,
2012-03-26, 03:28:04,VALID,1009.86,VALID,0,VALID,104,VALID,0,VALID,22.0983,VALID,333,VALID,0.114844,
2012-03-26, 03:29:04,VALID,1009.88,VALID,0,VALID,104,VALID,0,VALID,22.0966,VALID,333,VALID,0,
2012-03-26, 03:30:04,VALID,1009.89,VALID,0,VALID,104,VALID,0.112112,VALID,22.0771,VALID,333,VALID,0,
2012-03-26, 03:31:04,VALID,1009.87,VALID,0,VALID,104,VALID,0,VALID,22.0382,VALID,333,VALID,0,
2012-03-26, 03:32:04,VALID,1009.89,VALID,0,VALID,104,VALID,0.112112,VALID,21.9797,VALID,333,VALID,0,
2012-03-26, 03:33:04,VALID,1009.87,VALID,0,VALID,104,VALID,0,VALID,21.9196,VALID,333,VALID,0,
2012-03-26, 03:34:04,VALID,1009.9,VALID,0,VALID,104,VALID,0,VALID,21.9213,VALID,333,VALID,0,
2012-03-26, 03:35:04,VALID,1009.91,VALID,0,VALID,104,VALID,0.112112,VALID,21.9213,VALID,333,VALID,0,
2012-03-26, 03:36:04,VALID,1009.93,VALID,0,VALID,104,VALID,0,VALID,21.9797,VALID,333,VALID,0,
2012-03-26, 03:37:04,VALID,1009.94,VALID,0,VALID,104,VALID,0.112112,VALID,22.0187,VALID,333,VALID,0,
2012-03-26, 03:38:04,VALID,1009.95,VALID,0,VALID,104,VALID,0.112112,VALID,22.0187,VALID,333,VALID,0,
2012-03-26, 03:39:04,VALID,1009.98,VALID,0,VALID,104,VALID,0,VALID,21.9391,VALID,333,VALID,0,
2012-03-26, 03:40:04,VALID,1009.99,VALID,0,VALID,104,VALID,0,VALID,21.9408,VALID,333,VALID,0,
2012-03-26, 03:41:04,VALID,1009.98,VALID,0,VALID,104,VALID,0.112112,VALID,21.9213,VALID,333,VALID,0,
2012-03-26, 03:42:04,VALID,1009.99,VALID,0,VALID,104,VALID,0.112112,VALID,21.8612,VALID,333,VALID,0,
2012-03-26, 03:43:04,VALID,1010.01,VALID,0,VALID,104,VALID,0.112112,VALID,21.8629,VALID,333,VALID,0,
2012-03-26, 03:44:04,VALID,1010.02,VALID,0,VALID,104,VALID,0.112112,VALID,21.8239,VALID,333,VALID,0,
2012-03-26, 03:45:04,VALID,1010.02,VALID,0,VALID,104,VALID,0,VALID,21.8239,VALID,333,VALID,0,
2012-03-26, 03:46:04,VALID,1010,VALID,0,VALID,104,VALID,0.112112,VALID,21.8434,VALID,333,VALID,0,
2012-03-26, 03:47:04,VALID,1010.02,VALID,0,VALID,104,VALID,0.112112,VALID,21.8629,VALID,333,VALID,0,
2012-03-26, 03:48:04,VALID,1010.03,VALID,0,VALID,104,VALID,0,VALID,21.8434,VALID,333,VALID,0.157422,
2012-03-26, 03:49:04,VALID,1010.02,VALID,0,VALID,104,VALID,0,VALID,21.8239,VALID,333,VALID,0,
2012-03-26, 03:50:04,VALID,1010.06,VALID,0,VALID,104,VALID,0,VALID,21.8434,VALID,333,VALID,0,
2012-03-26, 03:51:04,VALID,1010.08,VALID,0,VALID,104,VALID,0,VALID,21.8645,VALID,333,VALID,0,
2012-03-26, 03:52:04,VALID,1010.05,VALID,0,VALID,104,VALID,0,VALID,21.8239,VALID,333,VALID,0.213672,
2012-03-26, 03:53:04,VALID,1010.07,VALID,0,VALID,104,VALID,0,VALID,21.8045,VALID,333,VALID,0.120312,
2012-03-26, 03:54:04,VALID,1010.07,VALID,0,VALID,104,VALID,0,VALID,21.8045,VALID,333,VALID,0,
2012-03-26, 03:55:04,VALID,1010.04,VALID,0,VALID,104,VALID,0,VALID,21.8045,VALID,333,VALID,0,
2012-03-26, 03:56:04,VALID,1010.01,VALID,0,VALID,104,VALID,0,VALID,21.8239,VALID,333,VALID,0,
2012-03-26, 03:57:04,VALID,1010.01,VALID,0,VALID,104,VALID,0,VALID,21.8629,VALID,333,VALID,0.173438,
2012-03-26, 03:58:04,VALID,1010.02,VALID,0,VALID,104,VALID,0,VALID,21.8824,VALID,333,VALID,0.224609,
2012-03-26, 03:59:04,VALID,1010.02,VALID,0,VALID,104,VALID,0,VALID,21.8629,VALID,333,VALID,0.326953,
2012-03-26, 04:00:04,VALID,1010,VALID,0,VALID,104,VALID,0,VALID,21.8629,VALID,333,VALID,0.308203,
2012-03-26, 04:01:04,VALID,1010.03,VALID,0,VALID,104,VALID,0,VALID,21.8418,VALID,333,VALID,0.336719,
2012-03-26, 04:02:04,VALID,1009.98,VALID,0,VALID,104,VALID,0,VALID,21.8645,VALID,333,VALID,0.391406,
2012-03-26, 04:03:04,VALID,1009.97,VALID,0,VALID,104,VALID,0,VALID,21.8629,VALID,333,VALID,0.226172,
2012-03-26, 04:04:04,VALID,1009.99,VALID,0,VALID,104,VALID,0,VALID,21.8434,VALID,333,VALID,0.0367187,
2012-03-26, 04:05:04,VALID,1009.98,VALID,0,VALID,104,VALID,0,VALID,21.8239,VALID,333,VALID,0,